Estació municipal de Vilalleons (Osona, E.N.Guilleries-Savassona)

Consulta les dades en temps real de l'estació municipal de Vilalleons





Hora UTC 06:00
Temperatura 10.1 ºC
Humitat 98.0 %
Pressió 1014.4 hPa
Pluja 0.2 mm
Velocitat vent 0.0 km/h
Direcció vent N

Webcam

Dades diàries 2026-05-09



Hora UTC (hivern +1h; estiu +2h)
Temperatura (ºC) Humitat (%) Pressió (hPa) Velocitat vent (km/h) Precipitació (mm)
Hora UTC Aire Humitat Pressió Vel. Dir. Vel. Max Dir. Intent. màx 5 min.
00:05 7.7 93.0 1015.6 0.0 SE 0.0 0.0
00:10 7.7 93.0 1015.5 0.0 SE 0.0 0.0
00:15 7.7 94.0 1015.5 0.0 SE 0.0 0.0
00:20 7.8 94.0 1015.6 0.0 SE 0.0 0.0
00:25 7.8 94.0 1015.6 0.0 SE 0.0 0.0
00:30 7.8 94.0 1015.4 0.0 SE 0.0 0.0
00:35 7.8 94.0 1015.4 0.0 SE 0.0 0.0
00:40 7.8 94.0 1015.4 0.0 SE 0.0 0.0
00:45 7.9 94.0 1015.4 0.0 SE 0.0 0.0
00:50 7.8 95.0 1015.4 0.0 SE 0.0 0.0
00:55 8.0 95.0 1015.4 0.0 SE 0.0 0.0
01:00 7.9 95.0 1015.5 0.0 SE 0.0 0.0
01:05 7.9 95.0 1015.4 0.0 SE 0.0 0.0
01:10 7.9 95.0 1015.4 1.6 SE 4.8 0.0
01:15 7.9 95.0 1015.5 1.6 SE 4.8 0.0
01:20 7.9 95.0 1015.3 0.0 SE 3.2 0.0
01:25 8.0 95.0 1015.2 0.0 SE 3.2 0.0
01:30 8.0 95.0 1015.2 1.6 SE 3.2 0.0
01:35 8.1 95.0 1015.2 0.0 SE 3.2 0.0
01:40 8.1 95.0 1015.1 0.0 SE 3.2 0.0
01:45 8.1 95.0 1015.1 0.0 SE 1.6 0.0
01:50 7.9 95.0 1015.1 1.6 SE 3.2 0.0
01:55 7.9 95.0 1014.9 0.0 SE 3.2 0.0
02:00 7.9 95.0 1014.9 0.0 SE 3.2 0.2
02:05 7.8 95.0 1015.0 0.0 SE 0.0 0.0
02:10 7.9 95.0 1014.8 0.0 SE 0.0 0.0
02:15 7.9 95.0 1014.9 0.0 SE 0.0 0.0
02:20 8.0 96.0 1014.8 0.0 SE 0.0 0.0
02:25 8.1 96.0 1014.7 0.0 SE 0.0 0.0
02:30 8.3 96.0 1014.6 0.0 SE 0.0 0.0
02:35 8.4 97.0 1014.5 0.0 SE 0.0 0.0
02:40 8.7 97.0 1014.4 0.0 SE 0.0 0.0
02:45 8.7 97.0 1014.4 0.0 SE 0.0 0.0
02:50 8.7 97.0 1014.4 0.0 SE 0.0 0.0
02:55 8.6 97.0 1014.6 0.0 SE 0.0 0.0
03:00 8.6 96.0 1014.5 0.0 SE 0.0 0.0
03:05 8.4 96.0 1014.5 0.0 SE 0.0 0.0
03:10 8.3 97.0 1014.4 0.0 SE 0.0 0.0
03:15 8.3 97.0 1014.4 0.0 SE 0.0 0.0
03:20 8.3 97.0 1014.4 0.0 SE 0.0 0.0
03:25 8.1 96.0 1014.4 0.0 SE 0.0 0.0
03:30 7.9 96.0 1014.5 0.0 SE 0.0 0.0
03:35 7.8 96.0 1014.3 0.0 SE 0.0 0.0
03:40 7.7 96.0 1014.4 0.0 SE 0.0 0.0
03:45 7.6 96.0 1014.3 0.0 SE 0.0 0.0
03:50 7.5 96.0 1014.3 0.0 SE 0.0 0.0
03:55 7.4 96.0 1014.3 0.0 SE 0.0 0.0
04:00 7.4 97.0 1014.1 0.0 SE 0.0 0.0
04:05 7.4 97.0 1014.2 0.0 SE 0.0 0.0
04:10 7.5 97.0 1014.1 0.0 SE 0.0 0.0
04:15 7.6 97.0 1014.2 0.0 SE 0.0 0.0
04:20 7.7 97.0 1014.2 0.0 SE 0.0 0.0
04:25 7.8 97.0 1014.0 0.0 SE 0.0 0.0
04:30 8.0 97.0 1014.1 0.0 SE 0.0 0.0
04:35 8.2 98.0 1014.3 0.0 SE 0.0 0.0
04:40 8.4 97.0 1014.2 0.0 SE 0.0 0.0
04:45 8.6 98.0 1014.3 0.0 SE 0.0 0.0
04:50 8.8 98.0 1014.3 0.0 SE 0.0 0.0
04:55 8.8 98.0 1014.4 0.0 SE 0.0 0.0
05:00 8.9 98.0 1014.3 0.0 SE 0.0 0.0
05:05 9.2 98.0 1014.2 0.0 SE 0.0 0.0
05:10 9.2 98.0 1014.4 0.0 SE 0.0 0.0
05:15 9.2 97.0 1014.2 0.0 SE 0.0 0.0
05:20 9.3 98.0 1014.3 0.0 SE 0.0 0.0
05:25 9.3 98.0 1014.3 0.0 SE 0.0 0.0
05:30 9.4 98.0 1014.6 0.0 SE 0.0 0.0
05:35 9.6 98.0 1014.5 0.0 SE 0.0 0.0
05:40 9.7 98.0 1014.4 0.0 SE 0.0 0.0
05:45 9.8 98.0 1014.3 0.0 SE 0.0 0.0
05:50 9.9 98.0 1014.2 0.0 SE 0.0 0.0
05:55 9.9 98.0 1014.3 0.0 SE 0.0 0.0
06:00 10.1 98.0 1014.4 0.0 N 0.0 0.0
Màxima 10.1 98.0 1015.6 1.6 SE 4.8 0.2
Mínima 7.4 93.0 1014.0
Total 0.2